| Date | Time | Temp. (oF) | Dew Point (oF) | Rel. Hum. (%) | Press. (in.) | Wind Dir. | Wind Speed (mph) | Hourly Rainfall (in.) |
|
|---|---|---|---|---|---|---|---|---|---|
| 1 | 04/01 | 00:00 | 41 | 41 | 100 | 29.94 | SE | 1 | 0.00 |
| 2 | 03/31 | 23:00 | 41 | 41 | 100 | 29.95 | SE | 0 | 0.00 |
| 3 | 03/31 | 22:00 | 42 | 41 | 100 | 29.95 | ESE | 3 | 0.00 |
| 4 | 03/31 | 21:00 | 42 | 41 | 100 | 29.94 | ENE | 1 | 0.00 |
| 5 | 03/31 | 20:00 | 43 | 42 | 100 | 29.92 | NE | 4 | 0.00 |
| 6 | 03/31 | 19:00 | 43 | 42 | 100 | 29.90 | ENE | 3 | 0.00 |
| 7 | 03/31 | 18:00 | 44 | 44 | 100 | 29.89 | E | 9 | 0.00 |
| 8 | 03/31 | 17:00 | 44 | 43 | 98 | 29.88 | E | 4 | 0.00 |
| 9 | 03/31 | 16:00 | 44 | 43 | 98 | 29.88 | ENE | 7 | 0.00 |
| 10 | 03/31 | 15:00 | 44 | 43 | 98 | 29.86 | ESE | 3 | 0.00 |
| 11 | 03/31 | 14:00 | 44 | 44 | 100 | 29.86 | NE | 13 | 0.00 |
| 12 | 03/31 | 13:00 | 42 | 41 | 100 | 29.86 | ENE | 5 | 0.00 |
| 13 | 03/31 | 12:00 | 42 | 41 | 100 | 29.86 | ENE | 8 | 0.00 |
| 14 | 03/31 | 11:00 | 42 | 41 | 100 | 29.87 | ENE | 7 | 0.00 |
| 15 | 03/31 | 10:00 | 42 | 41 | 100 | 29.86 | E | 3 | 0.00 |
| 16 | 03/31 | 09:00 | 42 | 41 | 100 | 29.85 | ENE | 7 | 0.00 |
| 17 | 03/31 | 08:00 | 42 | 41 | 100 | 29.83 | ESE | 3 | 0.00 |
| 18 | 03/31 | 07:00 | 42 | 41 | 100 | 29.83 | ESE | 2 | 0.00 |
| 19 | 03/31 | 06:00 | 42 | 41 | 100 | 29.82 | ESE | 2 | 0.00 |
| 20 | 03/31 | 05:00 | 42 | 41 | 100 | 29.84 | SE | 4 | 0.00 |
| 21 | 03/31 | 04:00 | 43 | 42 | 100 | 29.85 | NE | 0 | 0.00 |
| 22 | 03/31 | 03:00 | 42 | 41 | 100 | 29.85 | SSE | 3 | 0.10 |
| 23 | 03/31 | 02:00 | 41 | 41 | 100 | 29.86 | SE | 5 | 0.14 |
| 24 | 03/31 | 01:00 | 42 | 41 | 100 | 29.91 | SSE | 7 | 0.03 |